Weather Roundup
Issued by NWS Chicago, IL

Home | Current Version | Previous Version | Graphics & Text | Print | Product List | Glossary On
Versions: 1 2 3 4 5 6 7 8 9 10 11 12 13 14 15 16 17 18 19 20 21 22 23 24 25 26 27 28 29 30 31 32 33 34 35 36 37 38 39 40 41 42 43 44 45 46 47 48 49 50
000
NZUS59 KLOT 030608
HRRLOT

CHICAGO AREA WEATHER ROUNDUP
NATIONAL WEATHER SERVICE CHICAGO/ROMEOVILLE IL
100 AM CDT THU SEP 03 2015

NOTE: "FAIR" INDICATES FEW OR NO CLOUDS BELOW 12,000 FEET WITH NO
SIGNIFICANT WEATHER AND/OR OBSTRUCTIONS TO VISIBILITY.

* THESE STATIONS ARE NOT UNDER NWS QUALITY CONTROL. THEY ALSO MAY NOT
  REPORT WEATHER SUCH AS PRECIPITATION OR FOG.

ILZ005-006-012>014-019>023-030700-
NORTHEAST ILLINOIS

CITY           SKY/WX    TMP DP  RH WIND       PRES   REMARKS
OHARE            N/A     76  68  76 S5        29.96F
6HR MIN TEMP:  76; 6HR MAX TEMP:  85; 6HR PCP: TRACE;

MIDWAY         MOCLDY    79  69  71 S7        29.96F HX  81
6HR MIN TEMP:  79; 6HR MAX TEMP:  87;

AURORA           N/A     74  68  81 S6        29.98S
6HR MIN TEMP:  74; 6HR MAX TEMP:  83;

LANSING*         N/A     72  69  88 S3        29.98S
JOLIET*        MOCLDY    74  72  93 CALM      29.97S
WAUKEGAN       CLOUDY    75  69  81 S6        29.95S
6HR MIN TEMP:  74; 6HR MAX TEMP:  82;

DUPAGE AIRPORT   N/A     72  67  84 S5        29.97S
6HR MIN TEMP:  72; 6HR MAX TEMP:  82;

WHEELING       CLOUDY    79  66  64 S5        29.97S HX  81
6HR MIN TEMP:  76; 6HR MAX TEMP:  86;

KANKAKEE*        N/A     74  70  87 SW6       30.00S
MORRIS*          N/A     73  68  85 SW3       29.97S
LEWIS AIRPORT* MOCLDY    74  69  86 S5        29.98S
NORTHERLY IS     N/A     79  67  66 S5          N/A  HX  81
$$

WIZ051-052-058>065-066-070>072-030700-
SOUTHEAST WISCONSIN

CITY           SKY/WX    TMP DP  RH WIND       PRES   REMARKS
MILWAUKEE        N/A     77  70  79 S9        29.94F
6HR MIN TEMP:  75; 6HR MAX TEMP:  85; 6HR PCP: TRACE;

KENOSHA*         N/A     75  69  81 S5        29.96S
RACINE*          N/A     74  67  78 S6        29.96F
BURLINGTON       N/A     69  68  96 S5        29.95S FOG
WAUKESHA         N/A     72  68  88 SW6       29.95F
WEST BEND        N/A     70  66  88 CALM      29.94S
$$

INZ001>003-010>013-019-020-030700-
NORTHWEST INDIANA

CITY           SKY/WX    TMP DP  RH WIND       PRES   REMARKS
GARY*            N/A     78  68  72 CALM      29.98S
6HR MIN TEMP:  72; 6HR MAX TEMP:  86;

MICHIGAN CITY* NOT AVBL
RENSSELAER*    NOT AVBL
VALPARAISO       N/A     74  69  85 SW3       30.00S
$$

LMZ740>746-030700-
SOUTHERN LAKE MICHIGAN

STATION/POSITION TIME  SKY/WX   TEMP WIND        PRES    VSBY
                                AIR  DIR/SP/G
                 (UTC)          (F)  (DEG/KT/KT) (MB)    (MI)
HARRISON CRIB    0500            81  200/ 11/ 11   N/A
BURNHAM HARBOR   0600            79  200/  5/  6   N/A
CALUMET HARBOR   0500            78  190/  3/  4   N/A
BURNS HARBOR     0500            78  190/  8/ 11 1015.2
MICHIGAN CITY    0500            80  160/ 11/ 13   N/A
$$

ABBREVIATIONS USED IN REMARKS
   TC - TEMPERATURE IN CELSIUS
  WCI - WIND CHILL INDEX
   HX - HEAT INDEX
  VSB - VISIBILITY
$$


USA.gov is the U.S. government's official web portal to all federal, state and local government web resources and services.